Year,Month,Day,Hour,Minute,Value (Times are PST for temperature in C)
2022,03,27,08,49,9.30
2022,03,27,08,50,9.40
2022,03,27,08,51,9.40
2022,03,27,08,52,9.40
2022,03,27,08,53,9.40
2022,03,27,08,54,9.40
2022,03,27,08,55,9.40
2022,03,27,08,56,9.40
2022,03,27,08,57,9.40
2022,03,27,08,58,9.50
2022,03,27,08,59,9.50
2022,03,27,09,00,9.50
2022,03,27,09,01,9.50
2022,03,27,09,02,9.60
2022,03,27,09,03,9.60
2022,03,27,09,04,9.60
2022,03,27,09,05,9.60
2022,03,27,09,06,9.70
2022,03,27,09,07,9.70
2022,03,27,09,08,9.70
2022,03,27,09,09,9.70
2022,03,27,09,10,9.70
2022,03,27,09,11,9.70
2022,03,27,09,12,9.80
2022,03,27,09,13,9.80
2022,03,27,09,14,9.80
2022,03,27,09,15,9.80
2022,03,27,09,16,9.80
2022,03,27,09,17,9.80
2022,03,27,09,18,9.80
2022,03,27,09,19,9.80
2022,03,27,09,20,9.80
2022,03,27,09,21,9.80
2022,03,27,09,22,9.90
2022,03,27,09,23,9.90
2022,03,27,09,24,9.90
2022,03,27,09,25,9.90
2022,03,27,09,26,9.90
2022,03,27,09,27,9.90
2022,03,27,09,28,9.90
2022,03,27,09,29,9.90
2022,03,27,09,30,9.90
2022,03,27,09,31,9.90
2022,03,27,09,32,9.90
2022,03,27,09,33,9.90
2022,03,27,09,34,10.00
2022,03,27,09,35,10.00
2022,03,27,09,36,10.00
2022,03,27,09,37,10.00
2022,03,27,09,38,10.10
2022,03,27,09,39,10.10
2022,03,27,09,40,10.10
2022,03,27,09,41,10.20
2022,03,27,09,42,10.20
2022,03,27,09,43,10.20
2022,03,27,09,44,10.20
2022,03,27,09,45,10.20
2022,03,27,09,46,10.20
2022,03,27,09,47,10.20
2022,03,27,09,48,10.20
2022,03,27,09,49,10.20
2022,03,27,09,50,10.20
2022,03,27,09,51,10.20
2022,03,27,09,52,10.20
2022,03,27,09,53,10.20
2022,03,27,09,54,10.30
2022,03,27,09,55,10.30
2022,03,27,09,56,10.30
2022,03,27,09,57,10.30
2022,03,27,09,58,10.30
2022,03,27,09,59,10.30
2022,03,27,10,00,10.30
2022,03,27,10,01,10.30
2022,03,27,10,02,10.30
2022,03,27,10,03,10.30
2022,03,27,10,04,10.30
2022,03,27,10,05,10.40
2022,03,27,10,06,10.40
2022,03,27,10,07,10.40
2022,03,27,10,08,10.40
2022,03,27,10,09,10.40
2022,03,27,10,10,10.40
2022,03,27,10,11,10.40
2022,03,27,10,12,10.40
2022,03,27,10,13,10.40
2022,03,27,10,14,10.40
2022,03,27,10,15,10.40
2022,03,27,10,16,10.40
2022,03,27,10,17,10.40
2022,03,27,10,18,10.40
2022,03,27,10,19,10.50
2022,03,27,10,20,10.50
2022,03,27,10,21,10.50
2022,03,27,10,22,10.60
2022,03,27,10,23,10.60
2022,03,27,10,24,10.60
2022,03,27,10,25,10.60
2022,03,27,10,26,10.60
2022,03,27,10,27,10.60
2022,03,27,10,28,10.60
2022,03,27,10,29,10.60
2022,03,27,10,30,10.60
2022,03,27,10,31,10.60
2022,03,27,10,32,10.60
2022,03,27,10,33,10.60
2022,03,27,10,34,10.60
2022,03,27,10,35,10.70
2022,03,27,10,36,10.60
2022,03,27,10,37,10.60
2022,03,27,10,38,10.60
2022,03,27,10,39,10.60
2022,03,27,10,40,10.60
2022,03,27,10,41,10.60
2022,03,27,10,42,10.60
2022,03,27,10,43,10.70
2022,03,27,10,44,10.70
2022,03,27,10,45,10.70
2022,03,27,10,46,10.70
2022,03,27,10,47,10.70
2022,03,27,10,48,10.80
2022,03,27,10,49,10.80
2022,03,27,10,50,10.80
2022,03,27,10,51,10.90
2022,03,27,10,52,10.90
2022,03,27,10,53,11.00
2022,03,27,10,54,11.00
2022,03,27,10,55,11.00
2022,03,27,10,56,11.00
2022,03,27,10,57,11.10
2022,03,27,10,58,11.10
2022,03,27,10,59,11.10
2022,03,27,11,00,11.10
2022,03,27,11,01,11.10
2022,03,27,11,02,11.10
2022,03,27,11,03,11.00
2022,03,27,11,04,11.00
2022,03,27,11,05,11.00
2022,03,27,11,06,11.00
2022,03,27,11,07,11.00
2022,03,27,11,08,11.00
2022,03,27,11,09,11.00
2022,03,27,11,10,11.10
2022,03,27,11,11,11.10
2022,03,27,11,12,11.10
2022,03,27,11,13,11.10
2022,03,27,11,14,11.10
2022,03,27,11,15,11.10
2022,03,27,11,16,11.10
2022,03,27,11,17,11.10
2022,03,27,11,18,11.20
2022,03,27,11,19,11.20
2022,03,27,11,20,11.20
2022,03,27,11,21,11.20
2022,03,27,11,22,11.20
2022,03,27,11,23,11.30
2022,03,27,11,24,11.30
2022,03,27,11,25,11.30
2022,03,27,11,26,11.30
2022,03,27,11,27,11.30
2022,03,27,11,28,11.30
2022,03,27,11,29,11.40
2022,03,27,11,30,11.40
2022,03,27,11,31,11.40
2022,03,27,11,32,11.40
2022,03,27,11,33,11.40
2022,03,27,11,34,11.40
2022,03,27,11,35,11.50
2022,03,27,11,36,11.60
2022,03,27,11,37,11.60
2022,03,27,11,38,11.60
2022,03,27,11,39,11.60
2022,03,27,11,40,11.60
2022,03,27,11,41,11.60
2022,03,27,11,42,11.60
2022,03,27,11,43,11.60
2022,03,27,11,44,11.60
2022,03,27,11,45,11.50
2022,03,27,11,46,11.40
2022,03,27,11,47,11.40
2022,03,27,11,48,11.40
2022,03,27,11,49,11.40
2022,03,27,11,50,11.50
2022,03,27,11,51,11.50
2022,03,27,11,52,11.50
2022,03,27,11,53,11.50
2022,03,27,11,54,11.50
2022,03,27,11,55,11.60
2022,03,27,11,56,11.60
2022,03,27,11,57,11.60
2022,03,27,11,58,11.70
2022,03,27,11,59,11.70
2022,03,27,12,00,11.70
2022,03,27,12,01,11.60
2022,03,27,12,02,11.60
2022,03,27,12,03,11.60
2022,03,27,12,04,11.60
2022,03,27,12,05,11.60
2022,03,27,12,06,11.50
2022,03,27,12,07,11.50
2022,03,27,12,08,11.40
2022,03,27,12,09,11.40
2022,03,27,12,10,11.40
2022,03,27,12,11,11.50
2022,03,27,12,12,11.50
2022,03,27,12,13,11.60
2022,03,27,12,14,11.60
2022,03,27,12,15,11.60
2022,03,27,12,16,11.60
2022,03,27,12,17,11.60
2022,03,27,12,18,11.60
2022,03,27,12,19,11.70
2022,03,27,12,20,11.60
2022,03,27,12,21,11.60
2022,03,27,12,22,11.60
2022,03,27,12,23,11.60
2022,03,27,12,24,11.60
2022,03,27,12,25,11.60
2022,03,27,12,26,11.60
2022,03,27,12,27,11.70
2022,03,27,12,28,11.70
2022,03,27,12,29,11.70
2022,03,27,12,30,11.70
2022,03,27,12,31,11.70
2022,03,27,12,32,11.70
2022,03,27,12,33,11.70
2022,03,27,12,34,11.70
2022,03,27,12,35,11.70
2022,03,27,12,36,11.70
2022,03,27,12,37,11.70
2022,03,27,12,38,11.70
2022,03,27,12,39,11.70
2022,03,27,12,40,11.80
2022,03,27,12,41,11.80
2022,03,27,12,42,11.80
2022,03,27,12,43,11.80
2022,03,27,12,44,11.90
2022,03,27,12,45,11.90
2022,03,27,12,46,11.90
2022,03,27,12,47,12.00
2022,03,27,12,48,12.00
2022,03,27,12,49,12.00
2022,03,27,12,50,12.10
2022,03,27,12,51,12.10
2022,03,27,12,52,12.00
2022,03,27,12,53,12.00
2022,03,27,12,54,12.00
2022,03,27,12,55,12.10
2022,03,27,12,56,12.10
2022,03,27,12,57,12.10
2022,03,27,12,58,12.00
2022,03,27,12,59,12.00
2022,03,27,13,00,12.00
2022,03,27,13,01,12.00
2022,03,27,13,02,11.90
2022,03,27,13,03,11.90
2022,03,27,13,04,11.90
2022,03,27,13,05,11.90
2022,03,27,13,06,11.90
2022,03,27,13,07,11.90
2022,03,27,13,08,11.90
2022,03,27,13,09,11.90
2022,03,27,13,10,11.90
2022,03,27,13,11,11.90
2022,03,27,13,12,11.90
2022,03,27,13,13,12.00
2022,03,27,13,14,12.10
2022,03,27,13,15,12.10
2022,03,27,13,16,12.10
2022,03,27,13,17,12.10
2022,03,27,13,18,12.10
2022,03,27,13,19,12.20
2022,03,27,13,20,12.20
2022,03,27,13,21,12.30
2022,03,27,13,22,12.30
2022,03,27,13,23,12.30
2022,03,27,13,24,12.40
2022,03,27,13,25,12.40
2022,03,27,13,26,12.40
2022,03,27,13,27,12.40
2022,03,27,13,28,12.40
2022,03,27,13,29,12.50
2022,03,27,13,30,12.50
2022,03,27,13,31,12.50
2022,03,27,13,32,12.60
2022,03,27,13,33,12.60
2022,03,27,13,34,12.50
2022,03,27,13,35,12.50
2022,03,27,13,36,12.40
2022,03,27,13,37,12.50
2022,03,27,13,38,12.50
2022,03,27,13,39,12.50
2022,03,27,13,40,12.60
2022,03,27,13,41,12.60
2022,03,27,13,42,12.60
2022,03,27,13,43,12.60
2022,03,27,13,44,12.50
2022,03,27,13,45,12.50
2022,03,27,13,46,12.50
2022,03,27,13,47,12.50
2022,03,27,13,48,12.60
2022,03,27,13,49,12.60
2022,03,27,13,50,12.60
2022,03,27,13,51,12.60
2022,03,27,13,52,12.70
2022,03,27,13,53,12.70
2022,03,27,13,54,12.70
2022,03,27,13,55,12.70
2022,03,27,13,56,12.70
2022,03,27,13,57,12.70
2022,03,27,13,58,12.70
2022,03,27,13,59,12.70
2022,03,27,14,00,12.80
2022,03,27,14,01,12.80
2022,03,27,14,02,12.80
2022,03,27,14,03,12.80
2022,03,27,14,04,12.80
2022,03,27,14,05,12.80
2022,03,27,14,06,12.80
2022,03,27,14,07,12.80
2022,03,27,14,08,12.80
2022,03,27,14,09,12.80
2022,03,27,14,10,12.80
2022,03,27,14,11,12.80
2022,03,27,14,12,12.80
2022,03,27,14,13,12.80
2022,03,27,14,14,12.80
2022,03,27,14,15,12.80
2022,03,27,14,16,12.80
2022,03,27,14,17,12.90
2022,03,27,14,18,12.90
2022,03,27,14,19,12.90
2022,03,27,14,20,13.00
2022,03,27,14,21,13.00
2022,03,27,14,22,13.10
2022,03,27,14,23,13.10
2022,03,27,14,24,13.10
2022,03,27,14,25,13.20
2022,03,27,14,26,13.20
2022,03,27,14,27,13.30
2022,03,27,14,28,13.30
2022,03,27,14,29,13.30
2022,03,27,14,30,13.40
2022,03,27,14,31,13.30
2022,03,27,14,32,13.30
2022,03,27,14,33,13.30
2022,03,27,14,34,13.30
2022,03,27,14,35,13.30
2022,03,27,14,36,13.30
2022,03,27,14,37,13.20
2022,03,27,14,38,13.30
2022,03,27,14,39,13.30
2022,03,27,14,40,13.30
2022,03,27,14,41,13.30
2022,03,27,14,42,13.30
2022,03,27,14,43,13.30
2022,03,27,14,44,13.30
2022,03,27,14,45,13.30
2022,03,27,14,46,13.30
2022,03,27,14,47,13.20
2022,03,27,14,48,13.20
2022,03,27,14,49,13.10
2022,03,27,14,50,13.10
2022,03,27,14,51,13.10
2022,03,27,14,52,13.10
2022,03,27,14,53,13.20
2022,03,27,14,54,13.20
2022,03,27,14,55,13.20
2022,03,27,14,56,13.20
2022,03,27,14,57,13.30
2022,03,27,14,58,13.30
2022,03,27,14,59,13.30
2022,03,27,15,00,13.30
2022,03,27,15,01,13.40
2022,03,27,15,02,13.40
2022,03,27,15,03,13.40
2022,03,27,15,04,13.40
2022,03,27,15,05,13.40
2022,03,27,15,06,13.40
2022,03,27,15,07,13.40
2022,03,27,15,08,13.40
2022,03,27,15,09,13.50
2022,03,27,15,10,13.50
2022,03,27,15,11,13.50
2022,03,27,15,12,13.60
2022,03,27,15,13,13.60
2022,03,27,15,14,13.70
2022,03,27,15,15,13.70
2022,03,27,15,16,13.60
2022,03,27,15,17,13.50
2022,03,27,15,18,13.30
2022,03,27,15,19,13.10
2022,03,27,15,20,12.80
2022,03,27,15,21,12.60
2022,03,27,15,22,12.40
2022,03,27,15,23,12.20
2022,03,27,15,24,12.00
2022,03,27,15,25,11.80
2022,03,27,15,26,11.70
2022,03,27,15,27,11.60
2022,03,27,15,28,11.50
2022,03,27,15,29,11.40
2022,03,27,15,30,11.40
2022,03,27,15,31,11.30
2022,03,27,15,32,11.30
2022,03,27,15,33,11.30
2022,03,27,15,34,11.30
2022,03,27,15,35,11.30
2022,03,27,15,36,11.20
2022,03,27,15,37,11.10
2022,03,27,15,38,11.10
2022,03,27,15,39,11.00
2022,03,27,15,40,11.00
2022,03,27,15,41,11.00
2022,03,27,15,42,11.00
2022,03,27,15,43,11.10
2022,03,27,15,44,11.10
2022,03,27,15,45,11.10
2022,03,27,15,46,11.10
2022,03,27,15,47,11.10
2022,03,27,15,48,11.10
2022,03,27,15,49,11.10
2022,03,27,15,50,11.10
2022,03,27,15,51,11.10
2022,03,27,15,52,11.10
2022,03,27,15,53,11.10
2022,03,27,15,54,11.20
2022,03,27,15,55,11.20
2022,03,27,15,56,11.20
2022,03,27,15,57,11.20
2022,03,27,15,58,11.20
2022,03,27,15,59,11.20
2022,03,27,16,00,11.30
2022,03,27,16,01,11.30
2022,03,27,16,02,11.30
2022,03,27,16,03,11.30
2022,03,27,16,04,11.40
2022,03,27,16,05,11.40
2022,03,27,16,06,11.40
2022,03,27,16,07,11.30
2022,03,27,16,08,11.30
2022,03,27,16,09,11.20
2022,03,27,16,10,11.20
2022,03,27,16,11,11.20
2022,03,27,16,12,11.20
2022,03,27,16,13,11.20
2022,03,27,16,14,11.20
2022,03,27,16,15,11.20
2022,03,27,16,16,11.30
2022,03,27,16,17,11.30
2022,03,27,16,18,11.30
2022,03,27,16,19,11.30
2022,03,27,16,20,11.30
2022,03,27,16,21,11.30
2022,03,27,16,22,11.30
2022,03,27,16,23,11.30
2022,03,27,16,24,11.30
2022,03,27,16,25,11.30
2022,03,27,16,26,11.40
2022,03,27,16,27,11.40
2022,03,27,16,28,11.40
2022,03,27,16,29,11.50
2022,03,27,16,30,11.50
2022,03,27,16,31,11.60
2022,03,27,16,32,11.70
2022,03,27,16,33,11.70
2022,03,27,16,34,11.70
2022,03,27,16,35,11.80
2022,03,27,16,36,11.80
2022,03,27,16,37,11.80
2022,03,27,16,38,11.80
2022,03,27,16,39,11.80
2022,03,27,16,40,11.90
2022,03,27,16,41,11.90
2022,03,27,16,42,11.90
2022,03,27,16,43,11.80
2022,03,27,16,44,11.80
2022,03,27,16,45,11.80
2022,03,27,16,46,11.80
2022,03,27,16,47,11.80
2022,03,27,16,48,11.80
2022,03,27,16,49,11.80
2022,03,27,16,50,11.80
2022,03,27,16,51,11.80
2022,03,27,16,52,11.80
2022,03,27,16,53,11.80
2022,03,27,16,54,11.80
2022,03,27,16,55,11.80
2022,03,27,16,56,11.80
2022,03,27,16,57,11.90
2022,03,27,16,58,11.90
2022,03,27,16,59,11.80
2022,03,27,17,00,11.80
2022,03,27,17,01,11.80
2022,03,27,17,02,11.80
2022,03,27,17,03,11.70
2022,03,27,17,04,11.70
2022,03,27,17,05,11.70
2022,03,27,17,06,11.70
2022,03,27,17,07,11.70
2022,03,27,17,08,11.70
2022,03,27,17,09,11.70
2022,03,27,17,10,11.70
2022,03,27,17,11,11.70
2022,03,27,17,12,11.70
2022,03,27,17,13,11.70
2022,03,27,17,14,11.70
2022,03,27,17,15,11.70
2022,03,27,17,16,11.70
2022,03,27,17,17,11.60
2022,03,27,17,18,11.60
2022,03,27,17,19,11.70
2022,03,27,17,20,11.70
2022,03,27,17,21,11.70
2022,03,27,17,22,11.60
2022,03,27,17,23,11.60
2022,03,27,17,24,11.60
2022,03,27,17,25,11.60
2022,03,27,17,26,11.60
2022,03,27,17,27,11.60
2022,03,27,17,28,11.60
2022,03,27,17,29,11.60
2022,03,27,17,30,11.50
2022,03,27,17,31,11.60
2022,03,27,17,32,11.50
2022,03,27,17,33,11.50
2022,03,27,17,34,11.40
2022,03,27,17,35,11.40
2022,03,27,17,36,11.40
2022,03,27,17,37,11.40
2022,03,27,17,38,11.40
2022,03,27,17,39,11.30
2022,03,27,17,40,11.30
2022,03,27,17,41,11.30
2022,03,27,17,42,11.30
2022,03,27,17,43,11.30
2022,03,27,17,44,11.20
2022,03,27,17,45,11.30
2022,03,27,17,46,11.30
2022,03,27,17,47,11.30
2022,03,27,17,48,11.30
2022,03,27,17,49,11.30
2022,03,27,17,50,11.30
2022,03,27,17,51,11.30
2022,03,27,17,52,11.30
2022,03,27,17,53,11.30
2022,03,27,17,54,11.30
2022,03,27,17,55,11.30
2022,03,27,17,56,11.30
2022,03,27,17,57,11.30
2022,03,27,17,58,11.30
2022,03,27,17,59,11.30
2022,03,27,18,00,11.30
2022,03,27,18,01,11.30
2022,03,27,18,02,11.30
2022,03,27,18,03,11.30
2022,03,27,18,04,11.30
2022,03,27,18,05,11.30
2022,03,27,18,06,11.40
2022,03,27,18,07,11.40
2022,03,27,18,08,11.40
2022,03,27,18,09,11.40
2022,03,27,18,10,11.40
2022,03,27,18,11,11.40
2022,03,27,18,12,11.40
2022,03,27,18,13,11.40
2022,03,27,18,14,11.40
2022,03,27,18,15,11.40
2022,03,27,18,16,11.40
2022,03,27,18,17,11.40
2022,03,27,18,18,11.40
2022,03,27,18,19,11.40
2022,03,27,18,20,11.40
2022,03,27,18,21,11.40
2022,03,27,18,22,11.40
2022,03,27,18,23,11.40
2022,03,27,18,24,11.40
2022,03,27,18,25,11.40
2022,03,27,18,26,11.30
2022,03,27,18,27,11.30
2022,03,27,18,28,11.30
2022,03,27,18,29,11.30
2022,03,27,18,30,11.30
2022,03,27,18,31,11.30
2022,03,27,18,32,11.30
2022,03,27,18,33,11.30
2022,03,27,18,34,11.30
2022,03,27,18,35,11.30
2022,03,27,18,36,11.30
2022,03,27,18,37,11.30
2022,03,27,18,38,11.30
2022,03,27,18,39,11.30
2022,03,27,18,40,11.30
2022,03,27,18,41,11.30
2022,03,27,18,42,11.30
2022,03,27,18,43,11.30
2022,03,27,18,44,11.30
2022,03,27,18,45,11.30
2022,03,27,18,46,11.30
2022,03,27,18,47,11.30
2022,03,27,18,48,11.30
2022,03,27,18,49,11.40
2022,03,27,18,50,11.40
2022,03,27,18,51,11.40
2022,03,27,18,52,11.40
2022,03,27,18,53,11.40
2022,03,27,18,54,11.40
2022,03,27,18,55,11.40
2022,03,27,18,56,11.40
2022,03,27,18,57,11.40
2022,03,27,18,58,11.40
2022,03,27,18,59,11.40
2022,03,27,19,00,11.40
2022,03,27,19,01,11.40
2022,03,27,19,02,11.30
2022,03,27,19,03,11.30
2022,03,27,19,04,11.30
2022,03,27,19,05,11.30
2022,03,27,19,06,11.30
2022,03,27,19,07,11.30
2022,03,27,19,08,11.30
2022,03,27,19,09,11.30
2022,03,27,19,10,11.30
2022,03,27,19,11,11.30
2022,03,27,19,12,11.30
2022,03,27,19,13,11.30
